,,Stat6,,Stat2,,Stat8,,Stat9,,Stat10,,Wind1,,Wind1,
time,status,PA1M_AVG,status,PR1M_SUM,status,RH1M_AVG,status,SR1M_AVG,status,TA1M_AVG,status,W1dAve1m,status,W1sAve1m,
2008-06-16, 00:00:00,VALID,917.708,VALID,0,VALID,100,VALID,0.0849042,VALID,20.2252,VALID,73,VALID,0,
2008-06-16, 00:01:00,VALID,917.703,VALID,0,VALID,100,VALID,0.0169808,VALID,20.1603,VALID,71,VALID,0,
2008-06-16, 00:02:00,VALID,917.708,VALID,0,VALID,100,VALID,0.0509425,VALID,20.1403,VALID,71,VALID,0,
2008-06-16, 00:03:00,VALID,917.687,VALID,0,VALID,100,VALID,0.0509425,VALID,20.1306,VALID,71,VALID,0,
2008-06-16, 00:04:00,VALID,917.665,VALID,0,VALID,100,VALID,0.0509425,VALID,20.1471,VALID,71,VALID,0,
2008-06-16, 00:05:00,VALID,917.647,VALID,0,VALID,100,VALID,0.0339617,VALID,20.1666,VALID,71,VALID,0,
2008-06-16, 00:06:00,VALID,917.639,VALID,0,VALID,100,VALID,0.0169808,VALID,20.1763,VALID,71,VALID,0,
2008-06-16, 00:07:00,VALID,917.63,VALID,0,VALID,100,VALID,0.0339617,VALID,20.1633,VALID,79,VALID,0,
2008-06-16, 00:08:00,VALID,917.639,VALID,0,VALID,100,VALID,-0.0339617,VALID,20.1481,VALID,89,VALID,0,
2008-06-16, 00:09:00,VALID,917.637,VALID,0,VALID,100,VALID,-0.0679233,VALID,20.1289,VALID,89,VALID,0,
2008-06-16, 00:10:00,VALID,917.649,VALID,0,VALID,100,VALID,-0.0679233,VALID,20.1192,VALID,89,VALID,0,
2008-06-16, 00:11:00,VALID,917.641,VALID,0,VALID,100,VALID,-0.0509425,VALID,20.1062,VALID,89,VALID,0,
2008-06-16, 00:12:00,VALID,917.622,VALID,0,VALID,100,VALID,-0.0679233,VALID,20.0932,VALID,89,VALID,0,
2008-06-16, 00:13:00,VALID,917.632,VALID,0,VALID,100,VALID,-0.0679233,VALID,20.074,VALID,89,VALID,0,
2008-06-16, 00:14:00,VALID,917.62,VALID,0,VALID,100,VALID,-0.0849042,VALID,20.048,VALID,89,VALID,0,
2008-06-16, 00:15:00,VALID,917.608,VALID,0,VALID,100,VALID,-0.0679233,VALID,20.0448,VALID,89,VALID,0,
2008-06-16, 00:16:00,VALID,917.583,VALID,0,VALID,100,VALID,-0.0849042,VALID,20.0188,VALID,89,VALID,0,
2008-06-16, 00:17:01,VALID,917.562,VALID,0,VALID,100,VALID,-0.0849042,VALID,19.9993,VALID,89,VALID,0,
2008-06-16, 00:18:00,VALID,917.559,VALID,0,VALID,100,VALID,-0.0849042,VALID,19.9864,VALID,89,VALID,0,
2008-06-16, 00:19:00,VALID,917.536,VALID,0,VALID,100,VALID,-0.0509425,VALID,19.9734,VALID,89,VALID,0,
2008-06-16, 00:20:01,VALID,917.53,VALID,0,VALID,100,VALID,-0.0679233,VALID,19.9824,VALID,89,VALID,0,
2008-06-16, 00:21:00,VALID,917.536,VALID,0,VALID,100,VALID,-0.0509425,VALID,19.9891,VALID,89,VALID,0,
2008-06-16, 00:22:00,VALID,917.536,VALID,0,VALID,100,VALID,-0.101885,VALID,19.9829,VALID,89,VALID,0,
2008-06-16, 00:23:00,VALID,917.532,VALID,0,VALID,100,VALID,-0.101885,VALID,19.9769,VALID,90,VALID,0,
2008-06-16, 00:24:01,VALID,917.526,VALID,0,VALID,100,VALID,-0.0509425,VALID,19.9701,VALID,115,VALID,0,
2008-06-16, 00:25:00,VALID,917.52,VALID,0,VALID,100,VALID,-0.0509425,VALID,19.9537,VALID,116,VALID,0,
2008-06-16, 00:26:01,VALID,917.507,VALID,0,VALID,100,VALID,-0.0849042,VALID,19.9604,VALID,130,VALID,0,
2008-06-16, 00:27:00,VALID,917.498,VALID,0,VALID,100,VALID,-0.0509425,VALID,19.9507,VALID,138,VALID,0,
2008-06-16, 00:28:00,VALID,917.486,VALID,0,VALID,100,VALID,-0.0679233,VALID,19.9439,VALID,139,VALID,0.323946,
2008-06-16, 00:29:00,VALID,917.468,VALID,0,VALID,100,VALID,-0.0169808,VALID,19.917,VALID,139,VALID,0.744735,
2008-06-16, 00:30:00,VALID,917.479,VALID,0,VALID,100,VALID,-0.0339617,VALID,19.9239,VALID,143,VALID,0.888086,
2008-06-16, 00:31:00,VALID,917.476,VALID,0,VALID,100,VALID,0,VALID,19.9207,VALID,134,VALID,0.743627,
2008-06-16, 00:32:00,VALID,917.466,VALID,0,VALID,100,VALID,-0.0339617,VALID,19.9402,VALID,145,VALID,0.800272,
2008-06-16, 00:33:01,VALID,917.445,VALID,0,VALID,100,VALID,-0.0169808,VALID,19.9564,VALID,139,VALID,0.927144,
2008-06-16, 00:34:00,VALID,917.432,VALID,0,VALID,100,VALID,0,VALID,19.9891,VALID,138,VALID,0.677734,
2008-06-16, 00:35:00,VALID,917.402,VALID,0,VALID,100,VALID,-0.0339617,VALID,20.0021,VALID,136,VALID,1.01505,
2008-06-16, 00:36:00,VALID,917.383,VALID,0,VALID,100,VALID,-0.0339617,VALID,20.0021,VALID,135,VALID,1.07951,
2008-06-16, 00:37:00,VALID,917.357,VALID,0,VALID,100,VALID,-0.0339617,VALID,19.9851,VALID,127,VALID,0.961682,
2008-06-16, 00:38:00,VALID,917.336,VALID,0,VALID,100,VALID,-0.0509425,VALID,19.9624,VALID,128,VALID,0.927344,
2008-06-16, 00:39:01,VALID,917.306,VALID,0,VALID,100,VALID,0,VALID,19.9621,VALID,118,VALID,1.06014,
2008-06-16, 00:40:01,VALID,917.309,VALID,0,VALID,100,VALID,-0.0339617,VALID,19.9656,VALID,126,VALID,0.864453,
2008-06-16, 00:41:00,VALID,917.292,VALID,0,VALID,100,VALID,-0.0509425,VALID,19.9659,VALID,132,VALID,1.08594,
2008-06-16, 00:42:01,VALID,917.271,VALID,0,VALID,100,VALID,-0.0339617,VALID,19.9921,VALID,122,VALID,1.10014,
2008-06-16, 00:43:00,VALID,917.249,VALID,0,VALID,100,VALID,-0.0169808,VALID,19.9956,VALID,120,VALID,0.622396,
2008-06-16, 00:44:00,VALID,917.232,VALID,0,VALID,100,VALID,-0.0339617,VALID,19.9956,VALID,119,VALID,0.631177,
2008-06-16, 00:45:00,VALID,917.213,VALID,0,VALID,100,VALID,-0.0509425,VALID,19.9789,VALID,123,VALID,0.991319,
2008-06-16, 00:46:00,VALID,917.186,VALID,0,VALID,100,VALID,-0.0339617,VALID,19.9921,VALID,132,VALID,1.1181,
2008-06-16, 00:47:00,VALID,917.179,VALID,0,VALID,100,VALID,-0.0169808,VALID,19.9983,VALID,134,VALID,1.10491,
2008-06-16, 00:48:01,VALID,917.153,VALID,0,VALID,100,VALID,0,VALID,19.9818,VALID,137,VALID,0.74657,
2008-06-16, 00:49:00,VALID,917.138,VALID,0,VALID,100,VALID,-0.0509425,VALID,19.9918,VALID,126,VALID,0.763464,
2008-06-16, 00:50:00,VALID,917.121,VALID,0,VALID,100,VALID,-0.0169808,VALID,20.0113,VALID,132,VALID,0.513529,
2008-06-16, 00:51:01,VALID,917.096,VALID,0,VALID,100,VALID,-0.0509425,VALID,20.0081,VALID,139,VALID,0.773793,
2008-06-16, 00:52:01,VALID,917.089,VALID,0,VALID,100,VALID,-0.0169808,VALID,20.0375,VALID,147,VALID,0.994855,
2008-06-16, 00:53:00,VALID,917.064,VALID,0,VALID,100,VALID,-0.0339617,VALID,20.0567,VALID,149,VALID,0.816034,
2008-06-16, 00:54:00,VALID,917.075,VALID,0,VALID,100,VALID,-0.0169808,VALID,20.0565,VALID,153,VALID,0.609012,
2008-06-16, 00:55:00,VALID,917.064,VALID,0,VALID,100,VALID,-0.0339617,VALID,20.0532,VALID,150,VALID,0.629954,
2008-06-16, 00:56:00,VALID,917.068,VALID,0,VALID,100,VALID,0,VALID,20.0627,VALID,143,VALID,0.844105,
2008-06-16, 00:57:00,VALID,917.065,VALID,0,VALID,100,VALID,-0.0339617,VALID,20.07,VALID,153,VALID,0.71503,
2008-06-16, 00:58:00,VALID,917.046,VALID,0,VALID,100,VALID,-0.0169808,VALID,20.05,VALID,136,VALID,0.991386,
2008-06-16, 00:59:00,VALID,917.022,VALID,0,VALID,100,VALID,-0.0339617,VALID,20.0562,VALID,139,VALID,1.23387,
2008-06-16, 01:00:00,VALID,917.018,VALID,0,VALID,100,VALID,-0.0339617,VALID,20.0602,VALID,144,VALID,0.84375,
2008-06-16, 01:01:01,VALID,917.006,VALID,0,VALID,100,VALID,-0.0169808,VALID,20.0605,VALID,148,VALID,0.891992,
2008-06-16, 01:02:00,VALID,916.981,VALID,0,VALID,100,VALID,-0.0509425,VALID,20.0535,VALID,147,VALID,0.924237,
2008-06-16, 01:03:01,VALID,916.967,VALID,0,VALID,100,VALID,-0.0339617,VALID,20.057,VALID,140,VALID,1.28198,
2008-06-16, 01:04:01,VALID,916.96,VALID,0,VALID,100,VALID,-0.0509425,VALID,20.0802,VALID,136,VALID,1.14898,
2008-06-16, 01:05:01,VALID,916.944,VALID,0,VALID,100,VALID,0,VALID,20.0597,VALID,127,VALID,0.982701,
2008-06-16, 01:06:00,VALID,916.901,VALID,0,VALID,100,VALID,-0.0339617,VALID,20.0497,VALID,135,VALID,0.804869,
2008-06-16, 01:07:00,VALID,916.863,VALID,0,VALID,100,VALID,-0.0339617,VALID,20.0565,VALID,144,VALID,0.704397,
2008-06-16, 01:08:01,VALID,916.84,VALID,0,VALID,100,VALID,-0.0339617,VALID,20.0667,VALID,163,VALID,0.0116235,
2008-06-16, 01:09:01,VALID,916.817,VALID,0,VALID,100,VALID,0,VALID,20.0572,VALID,153,VALID,0,
2008-06-16, 01:10:01,VALID,916.782,VALID,0,VALID,100,VALID,-0.0339617,VALID,20.0475,VALID,134,VALID,0.330669,
2008-06-16, 01:11:01,VALID,916.755,VALID,0,VALID,100,VALID,-0.0509425,VALID,20.0705,VALID,133,VALID,1.19736,
2008-06-16, 01:12:01,VALID,916.729,VALID,0,VALID,100,VALID,-0.0679233,VALID,20.0635,VALID,140,VALID,1.06951,
2008-06-16, 01:13:01,VALID,916.711,VALID,0,VALID,100,VALID,-0.0339617,VALID,20.0702,VALID,146,VALID,1.18434,
2008-06-16, 01:14:01,VALID,916.724,VALID,0,VALID,100,VALID,-0.0509425,VALID,20.0864,VALID,148,VALID,0.666243,
2008-06-16, 01:15:01,VALID,916.732,VALID,0,VALID,100,VALID,-0.0169808,VALID,20.1057,VALID,143,VALID,0.776677,
2008-06-16, 01:16:00,VALID,916.748,VALID,0,VALID,100,VALID,-0.0339617,VALID,20.1124,VALID,148,VALID,0.956499,
2008-06-16, 01:17:00,VALID,916.758,VALID,0,VALID,100,VALID,-0.0509425,VALID,20.1186,VALID,137,VALID,0.729651,
2008-06-16, 01:18:00,VALID,916.766,VALID,0,VALID,100,VALID,-0.0169808,VALID,20.1189,VALID,125,VALID,1.72778,
2008-06-16, 01:19:00,VALID,916.788,VALID,0,VALID,100,VALID,-0.0339617,VALID,20.1057,VALID,120,VALID,1.14676,
2008-06-16, 01:20:00,VALID,916.776,VALID,0,VALID,100,VALID,-0.0339617,VALID,20.1154,VALID,134,VALID,1.68086,
2008-06-16, 01:21:00,VALID,916.794,VALID,0,VALID,100,VALID,-0.0339617,VALID,20.1511,VALID,135,VALID,1.24637,
2008-06-16, 01:22:00,VALID,916.788,VALID,0,VALID,100,VALID,0,VALID,20.1578,VALID,120,VALID,1.82205,
2008-06-16, 01:23:00,VALID,916.782,VALID,0,VALID,100,VALID,-0.0849042,VALID,20.1549,VALID,126,VALID,1.58899,
2008-06-16, 01:24:00,VALID,916.781,VALID,0,VALID,100,VALID,-0.0679233,VALID,20.1748,VALID,139,VALID,2.00036,
2008-06-16, 01:25:00,VALID,916.787,VALID,0,VALID,100,VALID,-0.0169808,VALID,20.1646,VALID,120,VALID,1.13336,
2008-06-16, 01:26:00,VALID,916.791,VALID,0,VALID,100,VALID,-0.0339617,VALID,20.1484,VALID,128,VALID,1.36065,
2008-06-16, 01:27:00,VALID,916.799,VALID,0,VALID,100,VALID,-0.0169808,VALID,20.1611,VALID,120,VALID,1.57695,
2008-06-16, 01:28:00,VALID,916.826,VALID,0,VALID,100,VALID,-0.0679233,VALID,20.1484,VALID,113,VALID,1.1293,
2008-06-16, 01:29:00,VALID,916.807,VALID,0,VALID,100,VALID,-0.0339617,VALID,20.1057,VALID,114,VALID,1.3226,
2008-06-16, 01:30:00,VALID,916.805,VALID,0,VALID,100,VALID,-0.0509425,VALID,20.0924,VALID,125,VALID,1.31745,
2008-06-16, 01:31:00,VALID,916.791,VALID,0,VALID,100,VALID,0,VALID,20.1029,VALID,119,VALID,1.71946,
2008-06-16, 01:32:00,VALID,916.79,VALID,0,VALID,100,VALID,-0.0169808,VALID,20.0927,VALID,114,VALID,1.62464,
2008-06-16, 01:33:00,VALID,916.789,VALID,0,VALID,100,VALID,-0.0169808,VALID,20.1097,VALID,127,VALID,1.85342,
2008-06-16, 01:34:00,VALID,916.795,VALID,0,VALID,100,VALID,-0.0169808,VALID,20.1184,VALID,120,VALID,1.65234,
2008-06-16, 01:35:00,VALID,916.782,VALID,0,VALID,100,VALID,-0.0339617,VALID,20.1221,VALID,121,VALID,0.963118,
2008-06-16, 01:36:00,VALID,916.784,VALID,0,VALID,100,VALID,-0.0509425,VALID,20.1054,VALID,131,VALID,1.41371,
2008-06-16, 01:37:00,VALID,916.789,VALID,0,VALID,100,VALID,-0.0509425,VALID,20.1244,VALID,125,VALID,1.26767,
2008-06-16, 01:38:00,VALID,916.812,VALID,0,VALID,100,VALID,-0.0169808,VALID,20.1411,VALID,138,VALID,1.49043,
2008-06-16, 01:39:00,VALID,916.826,VALID,0,VALID,100,VALID,-0.0339617,VALID,20.1638,VALID,132,VALID,1.24419,
2008-06-16, 01:40:00,VALID,916.84,VALID,0,VALID,100,VALID,0.0169808,VALID,20.1835,VALID,125,VALID,1.21563,
2008-06-16, 01:41:00,VALID,916.846,VALID,0,VALID,100,VALID,-0.0339617,VALID,20.1998,VALID,141,VALID,1.14234,
2008-06-16, 01:42:00,VALID,916.872,VALID,0,VALID,100,VALID,-0.0169808,VALID,20.2128,VALID,148,VALID,0.805035,
2008-06-16, 01:43:00,VALID,916.875,VALID,0,VALID,100,VALID,0,VALID,20.2352,VALID,138,VALID,1.4349,
2008-06-16, 01:44:00,VALID,916.869,VALID,0,VALID,100,VALID,-0.0339617,VALID,20.2547,VALID,148,VALID,1.42001,
2008-06-16, 01:45:00,VALID,916.874,VALID,0,VALID,100,VALID,-0.0339617,VALID,20.2874,VALID,130,VALID,1.80814,
2008-06-16, 01:46:00,VALID,916.877,VALID,0,VALID,100,VALID,-0.0339617,VALID,20.3198,VALID,139,VALID,1.56957,
2008-06-16, 01:47:00,VALID,916.888,VALID,0,VALID,100,VALID,-0.0339617,VALID,20.3393,VALID,140,VALID,2.06539,
2008-06-16, 01:48:00,VALID,916.891,VALID,0,VALID,100,VALID,-0.0169808,VALID,20.372,VALID,167,VALID,0.904344,
2008-06-16, 01:49:00,VALID,916.881,VALID,0,VALID,100,VALID,0,VALID,20.3845,VALID,130,VALID,2.1157,
2008-06-16, 01:50:00,VALID,916.891,VALID,0,VALID,100,VALID,-0.0339617,VALID,20.3945,VALID,124,VALID,1.24499,
2008-06-16, 01:51:00,VALID,916.891,VALID,0,VALID,100,VALID,-0.0509425,VALID,20.3845,VALID,130,VALID,1.8473,
2008-06-16, 01:52:00,VALID,916.887,VALID,0,VALID,100,VALID,-0.0339617,VALID,20.4199,VALID,110,VALID,2.64658,
2008-06-16, 01:53:00,VALID,916.874,VALID,0,VALID,100,VALID,-0.0339617,VALID,20.4659,VALID,122,VALID,1.40816,
2008-06-16, 01:54:00,VALID,916.878,VALID,0,VALID,100,VALID,-0.0339617,VALID,20.4826,VALID,149,VALID,0.809304,
2008-06-16, 01:55:00,VALID,916.863,VALID,0,VALID,100,VALID,-0.0339617,VALID,20.4856,VALID,151,VALID,0.548328,
2008-06-16, 01:56:00,VALID,916.862,VALID,0,VALID,100,VALID,-0.0509425,VALID,20.4889,VALID,122,VALID,0.144531,
2008-06-16, 01:57:00,VALID,916.849,VALID,0,VALID,100,VALID,-0.0679233,VALID,20.4854,VALID,128,VALID,0.463778,
2008-06-16, 01:58:00,VALID,916.842,VALID,0,VALID,100,VALID,-0.0509425,VALID,20.4824,VALID,124,VALID,0.885016,
2008-06-16, 01:59:00,VALID,916.816,VALID,0,VALID,100,VALID,-0.0679233,VALID,20.4824,VALID,154,VALID,0.81436,
2008-06-16, 02:00:00,VALID,916.774,VALID,0,VALID,100,VALID,-0.0679233,VALID,20.4791,VALID,146,VALID,0.86701,
2008-06-16, 02:01:00,VALID,916.745,VALID,0,VALID,100,VALID,-0.0169808,VALID,20.4861,VALID,157,VALID,0.92024,
2008-06-16, 02:02:00,VALID,916.739,VALID,0,VALID,100,VALID,-0.0169808,VALID,20.4886,VALID,161,VALID,0.833939,
2008-06-16, 02:03:00,VALID,916.718,VALID,0,VALID,100,VALID,-0.0679233,VALID,20.4889,VALID,147,VALID,1.16756,
2008-06-16, 02:04:00,VALID,916.722,VALID,0,VALID,100,VALID,0,VALID,20.4824,VALID,145,VALID,0.660334,
2008-06-16, 02:05:00,VALID,916.735,VALID,0,VALID,100,VALID,-0.0679233,VALID,20.4891,VALID,131,VALID,0.45827,
2008-06-16, 02:06:00,VALID,916.73,VALID,0,VALID,100,VALID,-0.0679233,VALID,20.4824,VALID,129,VALID,0.339571,
2008-06-16, 02:07:00,VALID,916.744,VALID,0,VALID,100,VALID,-0.0339617,VALID,20.4756,VALID,134,VALID,0.842448,
2008-06-16, 02:08:00,VALID,916.722,VALID,0,VALID,100,VALID,-0.0509425,VALID,20.4761,VALID,127,VALID,0.521205,
2008-06-16, 02:09:00,VALID,916.745,VALID,0,VALID,100,VALID,-0.0509425,VALID,20.4529,VALID,146,VALID,0.661644,
2008-06-16, 02:10:00,VALID,916.744,VALID,0,VALID,100,VALID,-0.0169808,VALID,20.4464,VALID,155,VALID,0.920759,
2008-06-16, 02:11:00,VALID,916.733,VALID,0,VALID,100,VALID,-0.0339617,VALID,20.4467,VALID,139,VALID,0.890425,
2008-06-16, 02:12:00,VALID,916.724,VALID,0,VALID,100,VALID,0,VALID,20.4499,VALID,130,VALID,0.809338,
2008-06-16, 02:13:00,VALID,916.713,VALID,0,VALID,100,VALID,-0.0339617,VALID,20.4429,VALID,127,VALID,1.25381,
2008-06-16, 02:14:00,VALID,916.701,VALID,0,VALID,100,VALID,-0.0169808,VALID,20.4432,VALID,126,VALID,1.33836,
2008-06-16, 02:15:00,VALID,916.707,VALID,0,VALID,100,VALID,-0.0679233,VALID,20.4402,VALID,135,VALID,1.31782,
2008-06-16, 02:16:00,VALID,916.694,VALID,0,VALID,100,VALID,-0.0169808,VALID,20.4299,VALID,125,VALID,1.00142,
2008-06-16, 02:17:00,VALID,916.682,VALID,0,VALID,100,VALID,-0.0339617,VALID,20.4232,VALID,141,VALID,0.75,
2008-06-16, 02:18:00,VALID,916.675,VALID,0,VALID,100,VALID,-0.0169808,VALID,20.4242,VALID,148,VALID,1.16983,
2008-06-16, 02:19:00,VALID,916.66,VALID,0,VALID,100,VALID,-0.0339617,VALID,20.4242,VALID,163,VALID,0.968936,
2008-06-16, 02:20:00,VALID,916.655,VALID,0,VALID,100,VALID,-0.0339617,VALID,20.4177,VALID,161,VALID,1.03307,
2008-06-16, 02:21:00,VALID,916.648,VALID,0,VALID,100,VALID,-0.0339617,VALID,20.4145,VALID,164,VALID,0.511161,
2008-06-16, 02:22:00,VALID,916.659,VALID,0,VALID,100,VALID,-0.0509425,VALID,20.4177,VALID,162,VALID,0.971726,
2008-06-16, 02:23:00,VALID,916.65,VALID,0,VALID,100,VALID,-0.0169808,VALID,20.4107,VALID,182,VALID,1.20198,
2008-06-16, 02:24:00,VALID,916.668,VALID,0,VALID,100,VALID,-0.0509425,VALID,20.4075,VALID,182,VALID,1.00074,
2008-06-16, 02:25:00,VALID,916.671,VALID,0,VALID,100,VALID,-0.0509425,VALID,20.3947,VALID,176,VALID,1.16559,
2008-06-16, 02:26:00,VALID,916.658,VALID,0,VALID,100,VALID,-0.0339617,VALID,20.3883,VALID,178,VALID,0.93859,
2008-06-16, 02:27:00,VALID,916.653,VALID,0,VALID,100,VALID,-0.0509425,VALID,20.3718,VALID,171,VALID,0.814631,
2008-06-16, 02:28:00,VALID,916.651,VALID,0,VALID,100,VALID,-0.0509425,VALID,20.3623,VALID,165,VALID,1.03606,
2008-06-16, 02:29:00,VALID,916.651,VALID,0,VALID,100,VALID,-0.0849042,VALID,20.3493,VALID,152,VALID,0.657703,
2008-06-16, 02:30:00,VALID,916.637,VALID,0,VALID,100,VALID,-0.0339617,VALID,20.3391,VALID,172,VALID,1.1617,
2008-06-16, 02:31:00,VALID,916.621,VALID,0,VALID,100,VALID,-0.0339617,VALID,20.3396,VALID,186,VALID,0.950921,
2008-06-16, 02:32:00,VALID,916.61,VALID,0,VALID,100,VALID,0,VALID,20.3396,VALID,181,VALID,0.965588,
2008-06-16, 02:33:00,VALID,916.59,VALID,0,VALID,100,VALID,-0.0339617,VALID,20.3331,VALID,166,VALID,0.946948,
2008-06-16, 02:34:00,VALID,916.59,VALID,0,VALID,100,VALID,-0.0339617,VALID,20.3193,VALID,180,VALID,0.663491,
2008-06-16, 02:35:00,VALID,916.574,VALID,0,VALID,100,VALID,-0.0849042,VALID,20.3166,VALID,176,VALID,1.09684,
2008-06-16, 02:36:00,VALID,916.574,VALID,0,VALID,100,VALID,-0.0509425,VALID,20.3201,VALID,183,VALID,0.73971,
2008-06-16, 02:37:00,VALID,916.573,VALID,0,VALID,100,VALID,-0.0849042,VALID,20.3171,VALID,182,VALID,0.551314,
2008-06-16, 02:38:00,VALID,916.588,VALID,0,VALID,100,VALID,-0.0509425,VALID,20.3204,VALID,180,VALID,0.437305,
2008-06-16, 02:39:00,VALID,916.574,VALID,0,VALID,100,VALID,-0.0509425,VALID,20.3069,VALID,190,VALID,0.161044,
2008-06-16, 02:40:00,VALID,916.562,VALID,0,VALID,100,VALID,-0.0509425,VALID,20.3169,VALID,181,VALID,0.501143,
2008-06-16, 02:41:00,VALID,916.555,VALID,0,VALID,100,VALID,-0.0169808,VALID,20.2901,VALID,174,VALID,0.48331,
2008-06-16, 02:42:00,VALID,916.55,VALID,0,VALID,100,VALID,-0.0339617,VALID,20.2947,VALID,174,VALID,0.0842634,
2008-06-16, 02:43:00,VALID,916.538,VALID,0,VALID,100,VALID,-0.0169808,VALID,20.2847,VALID,173,VALID,0,
2008-06-16, 02:44:00,VALID,916.552,VALID,0,VALID,100,VALID,-0.0509425,VALID,20.2779,VALID,173,VALID,0,
2008-06-16, 02:45:00,VALID,916.547,VALID,0,VALID,100,VALID,-0.0849042,VALID,20.2882,VALID,173,VALID,0,
2008-06-16, 02:46:00,VALID,916.54,VALID,0,VALID,100,VALID,-0.0679233,VALID,20.2714,VALID,173,VALID,0,
2008-06-16, 02:47:00,VALID,916.543,VALID,0,VALID,100,VALID,-0.0339617,VALID,20.2712,VALID,173,VALID,0,
2008-06-16, 02:48:00,VALID,916.527,VALID,0,VALID,100,VALID,-0.0169808,VALID,20.2809,VALID,173,VALID,0,
2008-06-16, 02:49:00,VALID,916.507,VALID,0,VALID,100,VALID,0,VALID,20.2709,VALID,173,VALID,0,
2008-06-16, 02:50:00,VALID,916.493,VALID,0,VALID,100,VALID,-0.0339617,VALID,20.2614,VALID,173,VALID,0,
2008-06-16, 02:51:00,VALID,916.497,VALID,0,VALID,100,VALID,-0.0169808,VALID,20.2584,VALID,168,VALID,0.300781,
2008-06-16, 02:52:00,VALID,916.485,VALID,0,VALID,100,VALID,0.0169808,VALID,20.2417,VALID,165,VALID,0,
2008-06-16, 02:53:00,VALID,916.483,VALID,0,VALID,100,VALID,-0.0169808,VALID,20.2392,VALID,164,VALID,0,
2008-06-16, 02:54:00,VALID,916.469,VALID,0,VALID,100,VALID,-0.0169808,VALID,20.233,VALID,164,VALID,0,
2008-06-16, 02:55:00,VALID,916.474,VALID,0,VALID,100,VALID,-0.0169808,VALID,20.2233,VALID,164,VALID,0,
2008-06-16, 02:56:00,VALID,916.477,VALID,0,VALID,100,VALID,-0.0679233,VALID,20.2,VALID,164,VALID,0,
2008-06-16, 02:57:00,VALID,916.486,VALID,0,VALID,100,VALID,-0.0679233,VALID,20.1776,VALID,162,VALID,0,
2008-06-16, 02:58:00,VALID,916.489,VALID,0,VALID,100,VALID,-0.0679233,VALID,20.1583,VALID,162,VALID,0,
2008-06-16, 02:59:00,VALID,916.496,VALID,0,VALID,100,VALID,0,VALID,20.1119,VALID,148,VALID,0.162791,
2008-06-16, 03:00:00,VALID,916.475,VALID,0,VALID,100,VALID,-0.0509425,VALID,20.1027,VALID,142,VALID,0,
2008-06-16, 03:01:00,VALID,916.455,VALID,0,VALID,100,VALID,-0.0679233,VALID,20.0862,VALID,145,VALID,0,
2008-06-16, 03:02:00,VALID,916.459,VALID,0,VALID,100,VALID,-0.0679233,VALID,20.0932,VALID,159,VALID,1.00625,
2008-06-16, 03:03:00,VALID,916.434,VALID,0,VALID,100,VALID,-0.0849042,VALID,20.0837,VALID,161,VALID,0.742188,
2008-06-16, 03:04:00,VALID,916.424,VALID,0,VALID,100,VALID,-0.0679233,VALID,20.0702,VALID,173,VALID,0.76582,
2008-06-16, 03:05:00,VALID,916.418,VALID,0,VALID,100,VALID,-0.0679233,VALID,20.0735,VALID,172,VALID,0.679142,
2008-06-16, 03:06:00,VALID,916.428,VALID,0,VALID,100,VALID,-0.0339617,VALID,20.0695,VALID,164,VALID,0.495916,
2008-06-16, 03:07:00,VALID,916.413,VALID,0,VALID,100,VALID,-0.0849042,VALID,20.0837,VALID,148,VALID,0.621943,
2008-06-16, 03:08:00,VALID,916.41,VALID,0,VALID,100,VALID,-0.0339617,VALID,20.0368,VALID,127,VALID,1.0731,
2008-06-16, 03:09:00,VALID,916.395,VALID,0,VALID,100,VALID,0.0339617,VALID,20.0265,VALID,133,VALID,1.16621,
2008-06-16, 03:10:00,VALID,916.376,VALID,0,VALID,100,VALID,0.0169808,VALID,20.0238,VALID,143,VALID,1.61604,
2008-06-16, 03:11:00,VALID,916.357,VALID,0,VALID,100,VALID,0.0169808,VALID,20.0203,VALID,139,VALID,1.72005,
2008-06-16, 03:12:00,VALID,916.345,VALID,0,VALID,100,VALID,0.0339617,VALID,20.0235,VALID,144,VALID,1.09747,
2008-06-16, 03:13:00,VALID,916.313,VALID,0,VALID,100,VALID,0.0509425,VALID,20.0268,VALID,150,VALID,1.49867,
2008-06-16, 03:14:00,VALID,916.288,VALID,0,VALID,100,VALID,0,VALID,20.02,VALID,155,VALID,1.49684,
2008-06-16, 03:15:00,VALID,916.264,VALID,0,VALID,100,VALID,0.0339617,VALID,20.0268,VALID,159,VALID,1.56232,
2008-06-16, 03:16:00,VALID,916.249,VALID,0,VALID,100,VALID,0.0169808,VALID,20.0205,VALID,160,VALID,2.12482,
2008-06-16, 03:17:00,VALID,916.235,VALID,0,VALID,100,VALID,0.0339617,VALID,20.0073,VALID,168,VALID,1.23876,
2008-06-16, 03:18:00,VALID,916.242,VALID,0,VALID,100,VALID,0.0169808,VALID,19.9976,VALID,165,VALID,1.56841,
2008-06-16, 03:19:00,VALID,916.241,VALID,0,VALID,100,VALID,0.0509425,VALID,19.9743,VALID,143,VALID,1.88002,
2008-06-16, 03:20:00,VALID,916.249,VALID,0,VALID,100,VALID,0.0509425,VALID,19.9646,VALID,148,VALID,1.14844,
2008-06-16, 03:21:00,VALID,916.249,VALID,0,VALID,100,VALID,0.0509425,VALID,19.9254,VALID,133,VALID,0.875372,
2008-06-16, 03:22:00,VALID,916.246,VALID,0,VALID,100,VALID,0.0679233,VALID,19.8992,VALID,153,VALID,0.752148,
2008-06-16, 03:23:00,VALID,916.223,VALID,0,VALID,100,VALID,-0.0339617,VALID,19.8778,VALID,152,VALID,1.14425,
2008-06-16, 03:24:00,VALID,916.204,VALID,0,VALID,100,VALID,-0.0849042,VALID,19.8558,VALID,159,VALID,1.32187,
2008-06-16, 03:25:00,VALID,916.184,VALID,0,VALID,100,VALID,-0.0509425,VALID,19.8328,VALID,152,VALID,1.53255,
2008-06-16, 03:26:00,VALID,916.168,VALID,0,VALID,100,VALID,-0.0509425,VALID,19.7939,VALID,161,VALID,1.5959,
2008-06-16, 03:27:00,VALID,916.148,VALID,0,VALID,100,VALID,-0.0849042,VALID,19.7754,VALID,167,VALID,1.20694,
2008-06-16, 03:28:00,VALID,916.13,VALID,0,VALID,100,VALID,-0.0509425,VALID,19.7682,VALID,169,VALID,1.04985,
2008-06-16, 03:29:00,VALID,916.12,VALID,0,VALID,100,VALID,-0.0849042,VALID,19.752,VALID,173,VALID,0.695703,
2008-06-16, 03:30:00,VALID,916.102,VALID,0,VALID,100,VALID,-0.0679233,VALID,19.749,VALID,153,VALID,0.960747,
2008-06-16, 03:31:00,VALID,916.08,VALID,0,VALID,100,VALID,-0.0509425,VALID,19.7592,VALID,158,VALID,0.965183,
2008-06-16, 03:32:00,VALID,916.06,VALID,0,VALID,100,VALID,-0.0679233,VALID,19.7587,VALID,173,VALID,0.564174,
2008-06-16, 03:33:00,VALID,916.051,VALID,0,VALID,100,VALID,-0.0509425,VALID,19.7422,VALID,159,VALID,0.64008,
2008-06-16, 03:34:00,VALID,916.036,VALID,0,VALID,100,VALID,-0.0509425,VALID,19.7455,VALID,173,VALID,0.694931,
2008-06-16, 03:35:00,VALID,916.027,VALID,0,VALID,100,VALID,-0.0509425,VALID,19.719,VALID,157,VALID,0.643102,
2008-06-16, 03:36:00,VALID,916.039,VALID,0,VALID,100,VALID,-0.101885,VALID,19.7203,VALID,134,VALID,0.0625,
2008-06-16, 03:37:00,VALID,916.023,VALID,0,VALID,100,VALID,-0.0849042,VALID,19.71,VALID,138,VALID,0.214489,
2008-06-16, 03:38:00,VALID,916.041,VALID,0,VALID,100,VALID,-0.101885,VALID,19.6933,VALID,152,VALID,0.260764,
2008-06-16, 03:39:00,VALID,916.035,VALID,0,VALID,100,VALID,-0.101885,VALID,19.6903,VALID,163,VALID,0.513021,